Location: Mascot Post Office (historical)
(40.2645°N, 99.5462°W)
Time: 02:09:02
(UTC+00:00)

ERS-1 Rocket - Pass Details

Date: 14 July 2020
Orbit: 752 x 758 km, 98.5° (Epoch: 14 August)

Event Time Altitude Azimuth Distance (km) Brightness Sun altitude
Exits shadow 04:56:29 29° 221° (SW) 1,355 4.1 -23.2°
Maximum altitude 04:58:12 38° 262° (W) 1,143 4.0 -23.4°
Drops below altitude 10° 05:02:54 10° 330° (NNW) 2,293 6.6 -23.8°
Sets 05:05:22 0° 339° (NNW) 3,222 7.7 -24.0°
